Multibeam Report for NF-07-14-FKNMS


Ship Name: Nancy Foster
Chief Scientist: Keller, Brian
US National Oceanic and Atmospheric Administration
Source Organization: National Oceanic and Atmospheric Administration (NOAA)
Start Date: 2007-09-22
End Date: 2007-09-30


View ISO Metadata

Visit the full NCEI Bathymetry Viewer


Multibeam Bathymetry

Cruise Details

Project:
Instrument: Simrad EM1002

Data Quality

Number of Files: 111
Number of Records: 749305
BATHYMETRY DATA Quantity Percentage
Number of Beams 83172855 100%
Number of Good Beams 83049002 99.85%
Number of Zero Beams 123853 0.15%
Number of Flagged Beams 0 0%

Navigation Totals

Total Time: 52.1742 hours
Total Track Length: 655.6507 km
Average Speed: 12.567 km/hr (6.7856 knots)

Cruise Bounds

Northern Extent: 25.2123
Southern Extent: 24.3744
Western Extent: -83.1033
Eastern Extent: -80.1641

Limits

Minimum Sonar Depth 3.29 Maximum Sonar Depth 4.23
Minimum Altitude 0 Maximum Altitude 227.36
Minimum Depth 7.96 Maximum Depth 797.97

File Information

Full Resolution Bathymetry as collected (raw): 110

Files File Size Description
0001_20070923_231251_raw.all.mb56.gz 69.78MB Simrad multibeam vendor format
0002_20070924_004917_raw.all.mb56.gz 51.24MB Simrad multibeam vendor format
0003_20070924_014829_raw.all.mb56.gz 86.93MB Simrad multibeam vendor format
0004_20070924_031129_raw.all.mb56.gz 44.40MB Simrad multibeam vendor format
0005_20070924_034725_raw.all.mb56.gz 23.60MB Simrad multibeam vendor format
0006_20070924_040819_raw.all.mb56.gz 25.13MB Simrad multibeam vendor format
0007_20070924_043103_raw.all.mb56.gz 23.50MB Simrad multibeam vendor format
0008_20070924_045214_raw.all.mb56.gz 24.74MB Simrad multibeam vendor format
0009_20070924_051419_raw.all.mb56.gz 23.58MB Simrad multibeam vendor format
0010_20070924_053553_raw.all.mb56.gz 25.16MB Simrad multibeam vendor format
0011_20070924_055824_raw.all.mb56.gz 22.56MB Simrad multibeam vendor format
0012_20070924_061918_raw.all.mb56.gz 25.37MB Simrad multibeam vendor format
0013_20070924_064203_raw.all.mb56.gz 22.76MB Simrad multibeam vendor format
0014_20070924_070401_raw.all.mb56.gz 25.09MB Simrad multibeam vendor format
0015_20070924_072757_raw.all.mb56.gz 22.64MB Simrad multibeam vendor format
0016_20070924_080430_raw.all.mb56.gz 15.51MB Simrad multibeam vendor format
0017_20070924_082305_raw.all.mb56.gz 14.38MB Simrad multibeam vendor format
0018_20070924_084051_raw.all.mb56.gz 12.63MB Simrad multibeam vendor format
0019_20070924_085629_raw.all.mb56.gz 13.73MB Simrad multibeam vendor format
0020_20070924_091822_raw.all.mb56.gz 37.35MB Simrad multibeam vendor format
0021_20070926_021942_raw.all.mb56.gz 54.89MB Simrad multibeam vendor format
0022_20070926_030408_raw.all.mb56.gz 54.05MB Simrad multibeam vendor format
0023_20070926_034551_raw.all.mb56.gz 57.81MB Simrad multibeam vendor format
0024_20070926_042900_raw.all.mb56.gz 56.60MB Simrad multibeam vendor format
0025_20070926_051116_raw.all.mb56.gz 56.08MB Simrad multibeam vendor format
0026_20070926_055305_raw.all.mb56.gz 60.03MB Simrad multibeam vendor format
0027_20070926_063756_raw.all.mb56.gz 57.61MB Simrad multibeam vendor format
0028_20070926_072059_raw.all.mb56.gz 58.11MB Simrad multibeam vendor format
0029_20070926_080509_raw.all.mb56.gz 54.98MB Simrad multibeam vendor format
0030_20070926_084724_raw.all.mb56.gz 53.72MB Simrad multibeam vendor format
0031_20070926_092758_raw.all.mb56.gz 52.01MB Simrad multibeam vendor format
0032_20070926_100700_raw.all.mb56.gz 52.48MB Simrad multibeam vendor format
0033_20070926_104700_raw.all.mb56.gz 52.31MB Simrad multibeam vendor format
0034_20070926_144516_raw.all.mb56.gz 2.58MB Simrad multibeam vendor format
0035_20070926_144753_raw.all.mb56.gz 4.02MB Simrad multibeam vendor format
0036_20070926_145429_raw.all.mb56.gz 13.38MB Simrad multibeam vendor format
0037_20070926_151144_raw.all.mb56.gz 6.89MB Simrad multibeam vendor format
0038_20070926_152103_raw.all.mb56.gz 2.16MB Simrad multibeam vendor format
0039_20070926_152907_raw.all.mb56.gz 11.93MB Simrad multibeam vendor format
0040_20070926_154223_raw.all.mb56.gz 11.48MB Simrad multibeam vendor format
0041_20070926_155204_raw.all.mb56.gz 7.28MB Simrad multibeam vendor format
0042_20070926_160118_raw.all.mb56.gz 9.79MB Simrad multibeam vendor format
0043_20070926_161255_raw.all.mb56.gz 48.73MB Simrad multibeam vendor format
0044_20070926_221710_raw.all.mb56.gz 79.92MB Simrad multibeam vendor format
0045_20070926_232504_raw.all.mb56.gz 40.95MB Simrad multibeam vendor format
0046_20070927_000803_raw.all.mb56.gz 48.63MB Simrad multibeam vendor format
0047_20070927_012805_raw.all.mb56.gz 45.95MB Simrad multibeam vendor format
0048_20070927_022805_raw.all.mb56.gz 36.62MB Simrad multibeam vendor format
0049_20070927_032806_raw.all.mb56.gz 34.23MB Simrad multibeam vendor format
0050_20070927_042806_raw.all.mb56.gz 1.59MB Simrad multibeam vendor format
0051_20070927_050733_raw.all.mb56.gz 34.51MB Simrad multibeam vendor format
0052_20070927_060733_raw.all.mb56.gz 33.13MB Simrad multibeam vendor format
0053_20070927_070734_raw.all.mb56.gz 30.54MB Simrad multibeam vendor format
0054_20070927_080734_raw.all.mb56.gz 30.82MB Simrad multibeam vendor format
0055_20070927_090735_raw.all.mb56.gz 33.83MB Simrad multibeam vendor format
0056_20070927_100735_raw.all.mb56.gz 15.48MB Simrad multibeam vendor format
0057_20070927_211154_raw.all.mb56.gz 41.98MB Simrad multibeam vendor format
0058_20070927_221154_raw.all.mb56.gz 131.16MB Simrad multibeam vendor format
0059_20070928_011934_raw.all.mb56.gz 43.68MB Simrad multibeam vendor format
0060_20070928_021935_raw.all.mb56.gz 20.66MB Simrad multibeam vendor format
0061_20070928_030830_raw.all.mb56.gz 42.93MB Simrad multibeam vendor format
0062_20070928_040831_raw.all.mb56.gz 52.05MB Simrad multibeam vendor format
0063_20070928_052103_raw.all.mb56.gz 43.19MB Simrad multibeam vendor format
0064_20070928_062103_raw.all.mb56.gz 36.77MB Simrad multibeam vendor format
0065_20070928_073411_raw.all.mb56.gz 20.66MB Simrad multibeam vendor format
0066_20070928_182837_raw.all.mb56.gz 4.01MB Simrad multibeam vendor format
0067_20070928_183927_raw.all.mb56.gz 2.97MB Simrad multibeam vendor format
0068_20070928_185703_raw.all.mb56.gz 4.53MB Simrad multibeam vendor format
0069_20070928_190542_raw.all.mb56.gz 3.26MB Simrad multibeam vendor format
0070_20070928_191245_raw.all.mb56.gz 4.04MB Simrad multibeam vendor format
0071_20070928_192535_raw.all.mb56.gz 3.07MB Simrad multibeam vendor format
0072_20070928_193238_raw.all.mb56.gz 4.91MB Simrad multibeam vendor format
0073_20070928_194135_raw.all.mb56.gz 3.14MB Simrad multibeam vendor format
0074_20070928_194914_raw.all.mb56.gz 2.49MB Simrad multibeam vendor format
0075_20070928_195525_raw.all.mb56.gz 4.90MB Simrad multibeam vendor format
0076_20070928_200240_raw.all.mb56.gz 1.31MB Simrad multibeam vendor format
0077_20070928_200949_raw.all.mb56.gz 7.52MB Simrad multibeam vendor format
0078_20070928_202010_raw.all.mb56.gz 2.44MB Simrad multibeam vendor format
0079_20070928_202636_raw.all.mb56.gz 4.22MB Simrad multibeam vendor format
0080_20070928_203428_raw.all.mb56.gz 8.19MB Simrad multibeam vendor format
0081_20070928_204612_raw.all.mb56.gz 6.29MB Simrad multibeam vendor format
0082_20070928_205435_raw.all.mb56.gz 4.57MB Simrad multibeam vendor format
0083_20070928_210128_raw.all.mb56.gz 5.03MB Simrad multibeam vendor format
0084_20070928_210756_raw.all.mb56.gz 9.15MB Simrad multibeam vendor format
0085_20070928_211919_raw.all.mb56.gz 8.11MB Simrad multibeam vendor format
0086_20070928_212807_raw.all.mb56.gz 7.34MB Simrad multibeam vendor format
0087_20070928_213659_raw.all.mb56.gz 6.23MB Simrad multibeam vendor format
0088_20070928_214821_raw.all.mb56.gz 2.31MB Simrad multibeam vendor format
0089_20070928_215236_raw.all.mb56.gz 5.04MB Simrad multibeam vendor format
0090_20070928_215803_raw.all.mb56.gz 3.92MB Simrad multibeam vendor format
0091_20070928_220441_raw.all.mb56.gz 5.93MB Simrad multibeam vendor format
0092_20070928_221058_raw.all.mb56.gz 7.02MB Simrad multibeam vendor format
0093_20070928_221625_raw.all.mb56.gz 2.86MB Simrad multibeam vendor format
0094_20070928_222059_raw.all.mb56.gz 3.39MB Simrad multibeam vendor format
0095_20070928_222934_raw.all.mb56.gz 2.37MB Simrad multibeam vendor format
0096_20070928_223431_raw.all.mb56.gz 3.62MB Simrad multibeam vendor format
0097_20070928_224455_raw.all.mb56.gz 9.16MB Simrad multibeam vendor format
0098_20070928_230825_raw.all.mb56.gz 1.94MB Simrad multibeam vendor format
0099_20070928_231016_raw.all.mb56.gz 491.5KB Simrad multibeam vendor format
0100_20070929_000111_raw.all.mb56.gz 43.83MB Simrad multibeam vendor format
0101_20070929_010110_raw.all.mb56.gz 42.85MB Simrad multibeam vendor format
0102_20070929_020110_raw.all.mb56.gz 43.17MB Simrad multibeam vendor format
0103_20070929_030111_raw.all.mb56.gz 43.87MB Simrad multibeam vendor format
0104_20070929_040111_raw.all.mb56.gz 11.54MB Simrad multibeam vendor format
0105_20070929_042958_raw.all.mb56.gz 39.96MB Simrad multibeam vendor format
0106_20070929_060153_raw.all.mb56.gz 41.89MB Simrad multibeam vendor format
0107_20070929_070154_raw.all.mb56.gz 22.00MB Simrad multibeam vendor format
0108_20070929_073647_raw.all.mb56.gz 40.59MB Simrad multibeam vendor format
0109_20070929_083647_raw.all.mb56.gz 46.43MB Simrad multibeam vendor format
0110_20070929_094738_raw.all.mb56.gz 21.80MB Simrad multibeam vendor format

Metadata Files: 1

Files File Size Description
NF-07-14-FKNMS_Multibeam.xml NGDC created ISO metadata